Eugene, OR

8:42 PM PST on November 14, 2019 (GMT -0800)
Mahlon Sweet

Weather History for KEUG - September, 2019

Change the Weather History Date:

Sunday, September 8, 2019

  Actual Average Record
Temperature  
Mean Temperature 66 °F 64 °F  
Max Temperature 71 °F 79 °F 97 °F (1948)
Min Temperature 60 °F 49 °F 39 °F (1929)
Degree Days  
Heating Degree Days 0 3  
Month to date heating degree days 2 17  
Since 1 July heating degree days 14 84  
Cooling Degree Days 1 1  
Month to date cooling degree days 36 15  
Year to date cooling degree days 344 223  
Growing Degree Days 16 (Base 50)    
Moisture  
Dew Point 58 °F    
Average Humidity 76    
Maximum Humidity 90    
Minimum Humidity 61    
Precipitation  
Precipitation 0.39 in 0.03 in 0.59 in (1952)
Month to date precipitation 0.44 0.27  
Year to date precipitation 23.65 26.28  
Sea Level Pressure  
Sea Level Pressure 29.99 in    
Wind  
Wind Speed 9 mph (SSW)    
Max Wind Speed 18 mph    
Max Gust Speed 23 mph    
Visibility 8 miles    
Events Rain    
T = Trace of Precipitation, MM = Missing Value Source: NWS Daily Summary

Daily Weather History Graph

Daily Weather History Graph

Search for Another Location

Airport or City:

Astronomy

Sep. 08, 2019 Rise Set
Actual Time 6:43 AM PDT 7:36 PM PDT
Civil Twilight 6:14 AM PDT 8:05 PM PDT
Nautical Twilight 5:39 AM PDT 8:40 PM PDT
Astronomical Twilight 5:02 AM PDT 9:17 PM PDT
Moon 5:00 PM PDT (9/8) 1:17 AM PDT (9/8)
Length of Visible Light 13h 51m
Length of Day
12h 52m
Waxing Gibbous, 76% of the Moon is Illuminated
Sep 8
Waxing Gibbous
Sep 13
Full
Sep 21
Last Quarter
Sep 28
New
Oct 5
First Quarter

Hourly Weather History & Observations

Time (PDT) Temp. Dew Point Humidity Pressure Visibility Wind Dir Wind Speed Gust Speed Precip Events Conditions
12:54 AM 62.1 °F 55.9 °F 80% 30.04 in 10.0 mi South 3.5 mph - 0.00 in Rain Light Rain
1:54 AM 60.1 °F 55.0 °F 83% 30.04 in 10.0 mi South 5.8 mph - 0.00 in   Mostly Cloudy
2:54 AM 62.1 °F 55.9 °F 80% 30.02 in 10.0 mi South 5.8 mph - N/A   Overcast
3:54 AM 61.0 °F 55.9 °F 83% 30.02 in 10.0 mi South 9.2 mph - N/A   Overcast
4:18 AM 60.1 °F 57.0 °F 90% 30.02 in 10.0 mi South 6.9 mph - 0.00 in Rain Light Rain
4:32 AM 60.1 °F 57.0 °F 90% 30.02 in 10.0 mi South 5.8 mph - 0.01 in Rain Light Rain
4:51 AM 60.8 °F 57.2 °F 88% 30.02 in 10.0 mi South 6.9 mph - 0.03 in Rain Light Rain
4:54 AM 60.1 °F 57.0 °F 90% 30.02 in 10.0 mi South 8.1 mph - 0.04 in Rain Light Rain
5:10 AM 60.1 °F 57.9 °F 93% 30.02 in 10.0 mi SSE 8.1 mph - 0.02 in Rain Light Rain
5:54 AM 60.1 °F 57.9 °F 93% 30.01 in 10.0 mi SSE 8.1 mph - 0.02 in   Overcast
6:54 AM 60.1 °F 57.9 °F 93% 30.02 in 5.0 mi South 9.2 mph - N/A   Overcast
7:23 AM 60.1 °F 57.9 °F 93% 30.02 in 10.0 mi South 9.2 mph - N/A   Mostly Cloudy
7:54 AM 61.0 °F 57.9 °F 90% 30.02 in 10.0 mi SSW 9.2 mph - N/A   Mostly Cloudy
8:54 AM 63.0 °F 59.0 °F 87% 30.02 in 10.0 mi SSW 10.4 mph - N/A   Scattered Clouds
9:54 AM 64.9 °F 57.0 °F 75% 30.01 in 10.0 mi SW 9.2 mph - N/A   Scattered Clouds
10:09 AM 66.0 °F 57.0 °F 73% 30.01 in 10.0 mi SW 13.8 mph - N/A   Overcast
10:54 AM 66.9 °F 57.0 °F 70% 30.01 in 10.0 mi SSW 10.4 mph - N/A   Mostly Cloudy
11:54 AM 69.1 °F 55.9 °F 63% 29.99 in 10.0 mi SW 10.4 mph - N/A   Mostly Cloudy
12:54 PM 66.9 °F 57.0 °F 70% 29.98 in 10.0 mi SSW 11.5 mph - 0.00 in   Light Drizzle
1:54 PM 68.0 °F 55.9 °F 65% 29.97 in 7.0 mi WSW 11.5 mph - 0.00 in   Light Drizzle
2:21 PM 64.0 °F 60.1 °F 87% 29.98 in 3.0 mi SW 11.5 mph - 0.01 in Rain Light Rain
2:27 PM 64.0 °F 60.1 °F 87% 29.98 in 2.0 mi SW 12.7 mph - 0.02 in Rain Rain
2:54 PM 64.0 °F 61.0 °F 90% 29.97 in 5.0 mi SSW 8.1 mph - 0.06 in Rain Light Rain
3:12 PM 64.0 °F 60.1 °F 87% 29.97 in 2.5 mi SSW 3.5 mph - 0.00 in Rain Light Rain
3:29 PM 63.0 °F 61.0 °F 93% 29.97 in 4.0 mi WSW 4.6 mph - 0.12 in Rain Rain
3:35 PM 63.0 °F 61.0 °F 93% 29.97 in 3.0 mi SSW 3.5 mph - 0.14 in Rain Light Rain
3:50 PM 64.4 °F 60.8 °F 88% 29.97 in 2.5 mi South 8.1 mph - 0.17 in Rain Light Rain
3:54 PM 64.0 °F 61.0 °F 90% 29.96 in 2.5 mi South 8.1 mph - 0.18 in Rain Light Rain
4:13 PM 64.0 °F 61.0 °F 90% 29.96 in 5.0 mi South 6.9 mph - 0.04 in Rain Light Rain
4:54 PM 64.9 °F 60.1 °F 84% 29.96 in 8.0 mi SSW 8.1 mph - 0.05 in   Mostly Cloudy
5:29 PM 64.9 °F 60.1 °F 84% 29.95 in 9.0 mi WSW 5.8 mph - 0.00 in Rain Light Rain
5:52 PM 64.4 °F 60.8 °F 88% 29.95 in 10.0 mi SSW 9.2 mph - 0.02 in Rain Light Rain
5:54 PM 64.0 °F 61.0 °F 90% 29.94 in 10.0 mi SSW 9.2 mph - 0.02 in Rain Light Rain
6:33 PM 64.0 °F 60.1 °F 87% 29.95 in 9.0 mi SSW 9.2 mph - 0.00 in Rain Light Rain
6:54 PM 63.0 °F 60.1 °F 90% 29.95 in 10.0 mi SSW 9.2 mph - 0.02 in Rain Light Rain
7:54 PM 63.0 °F 60.1 °F 90% 29.96 in 8.0 mi SSW 9.2 mph - 0.01 in Rain Light Rain
8:54 PM 62.1 °F 57.9 °F 86% 29.97 in 7.0 mi SW 8.1 mph - 0.03 in Rain Light Rain
9:54 PM 61.0 °F 57.9 °F 90% 29.97 in 10.0 mi South 6.9 mph - 0.00 in   Mostly Cloudy
10:54 PM 60.1 °F 57.0 °F 90% 29.97 in 10.0 mi South 8.1 mph - N/A   Mostly Cloudy
11:03 PM 61.0 °F 57.9 °F 90% 29.98 in 10.0 mi South 6.9 mph - N/A   Mostly Cloudy
11:54 PM 60.1 °F 57.9 °F 93% 29.97 in 10.0 mi South 9.2 mph - N/A   Mostly Cloudy